{"data":{"norad_id":41899,"intl_designator":"2016-081B","name":"YIJIAN","alt_names":[],"object_type":"PAYLOAD","status":"ACTIVE","operator":null,"country":"PRC","launch_date":"2016-12-21","launch_site_code":"JSC","launch_vehicle":null,"mission":null,"orbit_class":"UNKNOWN","rcs_meters":0.3981,"size_class":null,"mass_kg":null,"dimensions":null,"purposes":[],"wikipedia_slug":null,"has_3d_model":false,"image_url":null,"decayed_at":null,"tle_current":{"epoch":"2026-09-19T18:57:32.611392Z","epoch_age_seconds":109709,"freshness":"FRESH","line1":"1 41899U 16081B   26262.78996078  .00000366  00000+0  84984-4 0  9990","line2":"2 41899  98.5444 263.6544 0021282  19.7008 340.5009 14.60855978518409","mean_motion":14.60855978,"eccentricity":0.0021282,"inclination_deg":98.5444,"raan_deg":263.6544,"arg_perigee_deg":19.7008,"mean_anomaly_deg":340.5009,"bstar":8.4984e-5,"rev_number":51840,"period_min":98.572345370517,"perigee_km":675.36817825863,"apogee_km":705.45474793695,"semimajor_km":7068.5484630978,"source":"CELESTRAK","updated_at":"2026-09-20T09:00:14.167228Z"}}}